When you browse on this site, cookies collect data to enhance your experience and personalize the content and advertising you see.
Visit our Privacy Policy to learn more. By continuing to use the site, you agree to this use of cookies and data.
  • In Latvia
  • List of Countries
  • For 7 days
  • Water Temperature
  • Weather Map
  • Weather Widgets
  • user-avatar
    Login

    Hourly Weather Naftalan

    Today, 18 August, Sunday

    Time Temperature Precipitation Wind Pressure Humidity
    00:00 +24°C° 0 mm 1 mps 759 mmHg 69%
    01:00 +24°C° 0 mm 2 mps 759 mmHg 70%
    02:00 +23°C° 0 mm 2 mps 759 mmHg 70%
    03:00 +23°C° 0 mm 2 mps 759 mmHg 69%
    04:00 +24°C° 0 mm 2 mps 759 mmHg 66%
    05:00 +24°C° 0 mm 3 mps 759 mmHg 63%
    06:00 +25°C° 0 mm 3 mps 760 mmHg 60%
    07:00 +27°C° 0 mm 3 mps 760 mmHg 53%
    08:00 +30°C° 0 mm 3 mps 760 mmHg 46%
    09:00 +33°C° 0 mm 3 mps 760 mmHg 39%
    10:00 +34°C° 0 mm 4 mps 759 mmHg 37%
    11:00 +35°C° 0 mm 4 mps 759 mmHg 34%
    12:00 +36°C° 0 mm 5 mps 759 mmHg 32%
    13:00 +35°C° 0 mm 5 mps 759 mmHg 32%
    14:00 +35°C° 0 mm 5 mps 759 mmHg 32%
    15:00 +35°C° 0 mm 5 mps 758 mmHg 32%
    16:00 +33°C° 0 mm 4 mps 758 mmHg 38%
    17:00 +32°C° 0 mm 4 mps 759 mmHg 43%
    18:00 +29°C° 0 mm 3 mps 759 mmHg 49%
    19:00 +28°C° 0 mm 3 mps 759 mmHg 57%
    20:00 +26°C° 0 mm 2 mps 759 mmHg 65%
    21:00 +25°C° 0 mm 2 mps 759 mmHg 73%
    22:00 +24°C° 0 mm 2 mps 759 mmHg 75%
    23:00 +24°C° 0 mm 1 mps 759 mmHg 76%

    Tomorrow, 19 August, Monday

    Time Temperature Precipitation Wind Pressure Humidity
    00:00 +23°C° 0 mm 1 mps 759 mmHg 78%
    01:00 +23°C° 0 mm 1 mps 760 mmHg 78%
    02:00 +22°C° 0 mm 1 mps 760 mmHg 78%
    03:00 +21°C° 0 mm 2 mps 760 mmHg 78%
    04:00 +23°C° 0 mm 2 mps 761 mmHg 73%
    05:00 +24°C° 0 mm 2 mps 761 mmHg 69%
    06:00 +24°C° 0 mm 2 mps 761 mmHg 65%
    07:00 +27°C° 0 mm 2 mps 761 mmHg 56%
    08:00 +30°C° 0 mm 2 mps 762 mmHg 47%
    09:00 +32°C° 0 mm 1 mps 762 mmHg 38%
    10:00 +34°C° 0 mm 2 mps 762 mmHg 35%
    11:00 +36°C° 0 mm 3 mps 762 mmHg 33%
    12:00 +37°C° 0 mm 4 mps 762 mmHg 30%
    13:00 +37°C° 0 mm 5 mps 762 mmHg 30%
    14:00 +36°C° 0 mm 5 mps 762 mmHg 30%
    15:00 +36°C° 0 mm 5 mps 761 mmHg 30%
    16:00 +35°C° 0 mm 5 mps 761 mmHg 34%
    17:00 +33°C° 0 mm 4 mps 762 mmHg 39%
    18:00 +30°C° 0 mm 3 mps 762 mmHg 43%
    19:00 +29°C° 0 mm 3 mps 762 mmHg 49%
    20:00 +27°C° 0 mm 2 mps 762 mmHg 55%
    21:00 +25°C° 0 mm 2 mps 763 mmHg 61%
    22:00 +24°C° 0 mm 1 mps 763 mmHg 63%
    23:00 +24°C° 0 mm 1 mps 763 mmHg 66%

    Day after tomorrow, 20 August, Tuesday

    Time Temperature Precipitation Wind Pressure Humidity
    00:00 +23°C° 0 mm 1 mps 763 mmHg 69%
    01:00 +23°C° 0 mm 2 mps 763 mmHg 64%
    02:00 +24°C° 0 mm 2 mps 763 mmHg 60%
    03:00 +24°C° 0 mm 3 mps 763 mmHg 56%
    04:00 +24°C° 0 mm 3 mps 763 mmHg 53%
    05:00 +25°C° 0 mm 4 mps 763 mmHg 50%
    06:00 +25°C° 0 mm 4 mps 763 mmHg 47%
    07:00 +28°C° 0 mm 4 mps 763 mmHg 41%
    08:00 +30°C° 0 mm 4 mps 764 mmHg 36%
    09:00 +34°C° 0 mm 4 mps 764 mmHg 30%
    10:00 +35°C° 0 mm 4 mps 763 mmHg 29%
    11:00 +37°C° 0 mm 4 mps 763 mmHg 27%
    12:00 +38°C° 0 mm 4 mps 763 mmHg 26%
    13:00 +39°C° 0 mm 5 mps 763 mmHg 28%
    14:00 +37°C° 0 mm 5 mps 762 mmHg 31%
    15:00 +36°C° 0 mm 6 mps 762 mmHg 33%
    16:00 +35°C° 0 mm 5 mps 762 mmHg 38%
    17:00 +33°C° 0 mm 5 mps 762 mmHg 44%
    18:00 +30°C° 0 mm 4 mps 762 mmHg 49%
    19:00 +29°C° 0 mm 3 mps 762 mmHg 54%
    20:00 +27°C° 0 mm 2 mps 762 mmHg 59%
    21:00 +26°C° 0 mm 2 mps 763 mmHg 64%
    22:00 +26°C° 0 mm 2 mps 762 mmHg 65%
    23:00 +25°C° 0 mm 2 mps 762 mmHg 65%

    21 August, Wednesday

    Time Temperature Precipitation Wind Pressure Humidity
    00:00 +25°C° 0 mm 2 mps 762 mmHg 66%
    01:00 +24°C° 0 mm 1 mps 762 mmHg 67%
    02:00 +24°C° 0 mm 1 mps 762 mmHg 69%
    03:00 +21°C° 0 mm 0 mps 762 mmHg 71%
    04:00 +24°C° 0 mm 1 mps 762 mmHg 65%
    05:00 +25°C° 0 mm 1 mps 762 mmHg 60%
    06:00 +26°C° 0 mm 2 mps 762 mmHg 54%
    07:00 +28°C° 0 mm 2 mps 762 mmHg 46%
    08:00 +31°C° 0 mm 2 mps 762 mmHg 38%
    09:00 +35°C° 0 mm 2 mps 762 mmHg 30%
    10:00 +36°C° 0 mm 3 mps 762 mmHg 28%
    11:00 +37°C° 0 mm 3 mps 762 mmHg 26%
    12:00 +38°C° 0 mm 4 mps 761 mmHg 24%
    13:00 +38°C° 0 mm 4 mps 761 mmHg 25%
    14:00 +37°C° 0 mm 4 mps 761 mmHg 26%
    15:00 +37°C° 0 mm 4 mps 760 mmHg 27%
    16:00 +35°C° 0 mm 4 mps 760 mmHg 33%
    17:00 +34°C° 0 mm 4 mps 760 mmHg 39%
    18:00 +31°C° 0 mm 3 mps 760 mmHg 44%
    19:00 +29°C° 0 mm 3 mps 761 mmHg 50%
    20:00 +28°C° 0 mm 2 mps 761 mmHg 55%
    21:00 +26°C° 0 mm 2 mps 761 mmHg 60%
    22:00 +26°C° 0 mm 2 mps 761 mmHg 61%
    23:00 +25°C° 0 mm 1 mps 761 mmHg 61%

    22 August, Thursday

    Time Temperature Precipitation Wind Pressure Humidity
    00:00 +25°C° 0 mm 1 mps 761 mmHg 61%
    01:00 +25°C° 0 mm 1 mps 761 mmHg 62%
    02:00 +25°C° 0 mm 1 mps 761 mmHg 62%
    03:00 +25°C° 0 mm 2 mps 760 mmHg 63%
    04:00 +25°C° 0 mm 1 mps 761 mmHg 62%
    05:00 +25°C° 0 mm 1 mps 761 mmHg 60%
    06:00 +26°C° 0 mm 1 mps 761 mmHg 59%
    07:00 +28°C° 0 mm 1 mps 761 mmHg 50%
    08:00 +31°C° 0 mm 1 mps 760 mmHg 41%
    09:00 +33°C° 0 mm 1 mps 760 mmHg 32%
    10:00 +35°C° 0 mm 2 mps 760 mmHg 29%
    11:00 +36°C° 0 mm 3 mps 760 mmHg 27%
    12:00 +37°C° 0 mm 4 mps 759 mmHg 24%
    13:00 +37°C° 0 mm 4 mps 759 mmHg 25%
    14:00 +37°C° 0 mm 5 mps 759 mmHg 26%
    15:00 +37°C° 0 mm 5 mps 758 mmHg 26%
    16:00 +35°C° 0 mm 5 mps 758 mmHg 32%
    17:00 +34°C° 0 mm 5 mps 759 mmHg 37%
    18:00 +32°C° 0 mm 5 mps 759 mmHg 43%
    19:00 +30°C° 0 mm 4 mps 759 mmHg 47%
    20:00 +29°C° 0 mm 4 mps 759 mmHg 52%
    21:00 +27°C° 0 mm 4 mps 759 mmHg 57%
    22:00 +27°C° 0 mm 3 mps 759 mmHg 59%
    23:00 +27°C° 0 mm 3 mps 759 mmHg 60%

    23 August, Friday

    Time Temperature Precipitation Wind Pressure Humidity
    00:00 +26°C° 0 mm 3 mps 759 mmHg 62%
    01:00 +26°C° 0 mm 3 mps 759 mmHg 62%
    02:00 +26°C° 0 mm 3 mps 759 mmHg 62%
    03:00 +26°C° 0 mm 3 mps 759 mmHg 62%
    04:00 +26°C° 0 mm 2 mps 759 mmHg 61%
    05:00 +26°C° 0 mm 2 mps 759 mmHg 59%
    06:00 +27°C° 0 mm 1 mps 759 mmHg 58%
    07:00 +29°C° 0 mm 2 mps 759 mmHg 50%
    08:00 +31°C° 0 mm 2 mps 759 mmHg 43%
    09:00 +35°C° 0 mm 2 mps 759 mmHg 35%
    10:00 +35°C° 0 mm 3 mps 759 mmHg 33%
    11:00 +36°C° 0 mm 4 mps 759 mmHg 31%
    12:00 +37°C° 0 mm 4 mps 759 mmHg 28%
    13:00 +37°C° 0 mm 5 mps 758 mmHg 29%
    14:00 +37°C° 0 mm 5 mps 758 mmHg 30%
    15:00 +36°C° 0 mm 6 mps 758 mmHg 31%
    16:00 +35°C° 0 mm 5 mps 758 mmHg 37%
    17:00 +33°C° 0 mm 5 mps 758 mmHg 42%
    18:00 +32°C° 0 mm 4 mps 758 mmHg 48%
    19:00 +30°C° 0 mm 4 mps 758 mmHg 53%
    20:00 +28°C° 0 mm 4 mps 758 mmHg 58%
    21:00 +27°C° 0 mm 3 mps 758 mmHg 63%
    22:00 +27°C° 0 mm 3 mps 758 mmHg 63%
    23:00 +27°C° 0 mm 3 mps 758 mmHg 63%
    Show more